Regional Weather Roundup
Issued by NWS Upton, NY

Current Version | Previous Version | Graphics & Text | Print | Product List | Glossary Off
Versions: 1 2 3 4 5 6 7 8 9 10 11 12 13 14 15 16 17 18 19 20 21 22 23 24 25 26 27 28 29 30 31 32 33 34 35 36 37 38 39 40 41 42 43 44 45 46 47
000 ASUS41 KOKX 280205 RWROKX REGIONAL WEATHER ROUNDUP NATIONAL WEATHER SERVICE NEW YORK NY 900 PM EST FRI FEB 27 2015 NOTE: "FAIR" INDICATES FEW OR NO CLOUDS BELOW 12,000 FEET WITH NO SIGNIFICANT WEATHER AND/OR OBSTRUCTIONS TO VISIBILITY. NYZ071-072-176-178-NJZ106-104-280300- NEW YORK CITY METRO AREA CITY SKY/WX TMP DP RH WIND PRES REMARKS CENTRAL PARK CLEAR 25 -1 32 NW7 30.56R WCI 17 LAGUARDIA APRT CLEAR 25 4 40 NW15G23 30.55R WCI 13 KENNEDY INTL PTCLDY 27 1 32 NW15 30.55R WCI 15 NEWARK/LIBERTY CLEAR 24 3 40 NW13 30.56R WCI 12 BRNX BOT. GARD N/A N/A N/A N/A W9 30.57R TETERBORO CLEAR 23 -1 35 NW9 30.55R WCI 13 $$ NYZ177-179-078>081-280300- LONG ISLAND NEW YORK CITY SKY/WX TMP DP RH WIND PRES REMARKS FARMINGDALE CLEAR 25 2 37 NW12 30.53R WCI 14 ISLIP CLEAR 23 6 48 NW9 30.51R WCI 13 SHIRLEY CLEAR 17 5 59 CALM 30.53R WESTHAMPTON CLEAR 8 -2 63 CALM 30.53R MONTAUK POINT N/A 25 3 38 NW13G22 30.51R WCI 14 $$ NYZ052-065-067-280300- HUDSON VALLEY CITY SKY/WX TMP DP RH WIND PRES REMARKS WHITE PLAINS CLEAR 21 -1 38 NW13 30.51R WCI 9 NEWBURGH CLEAR 18 1 49 NW14 30.53R WCI 4 MONTGOMERY CLEAR 17 -3 41 NW9 30.53R WCI 6 POUGHKEEPSIE CLEAR 14 3 61 CALM 30.55R ALBANY CLEAR 14 -1 51 NW13 30.55R WCI 0 $$ NJZ001-105-106-008-010-013-015-019>022-104-280300- NEW JERSEY CITY SKY/WX TMP DP RH WIND PRES REMARKS NEWARK/LIBERTY CLEAR 24 3 40 NW13 30.56R WCI 12 TETERBORO CLEAR 23 -1 35 NW9 30.55R WCI 13 CALDWELL CLEAR 20 -1 40 NW3 30.56R MORRISTOWN CLEAR 19 1 45 N5 30.57R WCI 13 SOMERVILLE CLEAR 18 1 47 CALM 30.55R SUSSEX CLEAR 15 -4 42 CALM 30.54R ANDOVER N/A 8 0 69 CALM 30.53R TRENTON CLEAR 23 3 42 NW6 30.56R WCI 16 MILLVILLE CLEAR 24 6 46 NW5 30.57R WCI 18 ATLANTIC CITY CLEAR 23 8 52 NW8 30.57R WCI 14 WRIGHTSTOWN CLEAR 22 6 49 W6 30.54R WCI 15 TOMS RIVER CLEAR 21 7 53 NW5 30.57R WCI 15 BELMAR CLEAR 23 3 42 NW6 30.54R WCI 16 $$ PAZ047>061-062-071-280300- EASTERN PENNSYLVANIA CITY SKY/WX TMP DP RH WIND PRES REMARKS PHILADELPHIA FAIR 26 4 38 W9 30.59R WCI 17 ALLENTOWN CLEAR 18 -1 43 NW5 30.56R WCI 11 SCRANTON CLEAR 15 -3 44 N6 30.52R WCI 6 $$ CTZ002-004>006-009-010-012-RIZ004-006-007-MAZ004-011-015-280300- SOUTHERN NEW ENGLAND IN CT CITY SKY/WX TMP DP RH WIND PRES REMARKS BRADLEY INTL CLEAR 19 -3 38 N5 30.51R WCI 12 HARTFORD CLEAR 20 -2 38 NW6 30.53R WCI 12 DANBURY CLEAR 9 -1 64 CALM 30.52R WTRBRY/OXFORD NOT AVBL BRIDGEPORT CLEAR 21 2 43 N6 30.53R WCI 13 MERIDEN FAIR 15 4 61 NW3 30.53R NEW HAVEN CLEAR 22 1 40 N8 30.52R WCI 12 CHESTER FAIR 21 1 42 NW7 30.49R WCI 13 GROTON CLEAR 19 1 45 NW7 30.51R WCI 10 WILLIMANTIC CLEAR 19 -4 36 NW5 30.50R WCI 12 IN RI CITY SKY/WX TMP DP RH WIND PRES REMARKS PROVIDENCE CLEAR 21 -2 36 NW8 30.48R WCI 11 BLOCK ISLAND CLEAR 25 3 39 NW13G20 30.47R WCI 13 WESTERLY CLEAR 22 -1 36 NW7 30.50R WCI 13 IN MA CITY SKY/WX TMP DP RH WIND PRES REMARKS BOSTON CLEAR 23 -3 32 NW9 30.48R WCI 13 WORCESTER CLEAR 14 -5 42 NW12 30.41R WCI 0 WESTFIELD CLEAR 17 -1 45 NW9 30.50R WCI 6 PROVINCETOWN CLEAR 21 5 49 W6 30.46R WCI 14 NANTUCKET CLEAR 22 11 62 W8 30.46R WCI 12 $$ ANZ330-335-338-340-345-350-353-355-280300- COASTAL MARINE OBSERVATIONS STATION/POSITION TIME SKY/WX TEMP WIND PRES VSBY WAVE AIR SEA DIR/SP/G HT/PER (UTC) (F) (DEG/KT/KT) (MB) (MI) (FT/S) NY HARB ENTRANCE 0200 29 38 310/ 16/ 19 1033.9 4/11 4S FIRE IS NOT AVBL 20S FIRE ISLAND 0100 36 1032.8 4/11 23SW MTP 0200 N/A 5/10 HUDSON CANYON NOT AVBL EXECUTION ROCKS NOT AVBL WESTERN LI SOUND NOT AVBL CENTRAL LI SOUND NOT AVBL EASTERN LI SOUND NOT AVBL ROBBINS REEF 0200 25 320/ 15/ 19 1033.1 $$ >>>>>>>>>>>>>>>>>>>>>>>>>>>> KEY <<<<<<<<<<<<<<<<<<<<<<<<<<< > < > SKY/WX - SKY CONDITION/PRESENT WEATHER < > TMP - TEMPERATURE IN FAHRENHEIT < > DP - DEWPOINT IN FAHRENHEIT < > RH - RELATIVE HUMIDITY IN PERCENT < > WIND - DIRECTION AND SPEED IN MPH < > PRES - MEAN SEA LEVEL PRESSURE IN INCHES OF HG < > WCI - WIND CHILL INDEX < > VSB - VISIBILITY IN MILES < > HX - HEAT INDEX < > TC - TEMPERATURE IN CELSIUS < > VRB - VARIABLE WIND DIRECTION < > < >>>>>>>>>>>>>>>>>>>>>>>>>>>> KEY <<<<<<<<<<<<<<<<<<<<<<<<<<<

USA.gov is the U.S. government's official web portal to all federal, state and local government web resources and services.